KC3BHK-2 Weather Reports


Display with metric or nautical units.
time (UTC)temp
F
wind
direction
speed
MPH
gust
MPH
rain 1hr
in
rain 24hr
in
rain mn
in
humidity
%
barometer
mb
20260509031944 48 134 0.0 0.0 0.00 0.00 0.00
20260509031439 48 124 0.0 0.0 0.00 0.00 0.00
20260509030934 49 124 0.0 0.0 0.00 0.00 0.00
20260509030430 49 124 0.0 0.0 0.00 0.00 0.00
20260509025925 50 124 0.0 0.0 0.00 0.00 0.00
20260509025417 50 124 0.0 0.0 0.00 0.00 0.00
20260509024912 49 124 0.0 0.0 0.00 0.00 0.00
20260509024408 50 124 0.0 0.0 0.00 0.00 0.00
20260509023903 49 124 0.0 0.0 0.00 0.00 0.00
20260509023358 50 124 0.0 0.0 0.00 0.00 0.00
20260509022852 50 124 0.0 0.0 0.00 0.00 0.00
20260509022344 51 124 0.0 0.0 0.00 0.00 0.00
20260509021839 52 124 0.0 0.0 0.00 0.00 0.00
20260509021335 51 124 0.0 0.0 0.00 0.00 0.00
20260509020830 52 124 0.0 1.0 0.00 0.00 0.00
20260509015821 53 188 0.0 0.0 0.00 0.00 0.00
20260509015313 53 188 0.0 0.0 0.00 0.00 0.00
20260509014808 54 188 0.0 5.0 0.00 0.00 0.00
20260509014304 53 222 2.0 7.0 0.00 0.00 0.00
20260509013759 54 204 0.0 0.0 0.00 0.00 0.00
20260509013254 55 204 0.0 0.0 0.00 0.00 0.00
20260509012749 56 204 0.0 0.0 0.00 0.00 0.00
20260509012242 56 204 0.0 0.0 0.00 0.00 0.00
20260509011737 55 204 0.0 0.0 0.00 0.00 0.00
20260509011232 55 204 0.0 0.0 0.00 0.00 0.00
20260509010727 57 204 0.0 0.0 0.00 0.00 0.00
20260509010222 58 204 0.0 0.0 0.00 0.00 0.00
20260509005717 58 204 0.0 0.0 0.00 0.00 0.00
20260509005209 58 204 0.0 0.0 0.00 0.00 0.00
20260509004200 59 204 0.0 0.0 0.00 0.00 0.00
20260509003655 60 204 0.0 0.0 0.00 0.00 0.00
20260509003150 60 204 0.0 0.0 0.00 0.00 0.00
20260509002646 61 204 0.0 0.0 0.00 0.00 0.00
20260509002138 60 204 0.0 0.0 0.00 0.00 0.00
20260509001633 60 204 0.0 0.0 0.00 0.00 0.00
20260509001128 62 204 0.0 0.0 0.00 0.00 0.00
20260509000624 61 204 0.0 0.0 0.00 0.00 0.00
20260509000119 62 204 0.0 0.0 0.00 0.00 0.00
20260508235614 63 204 0.0 0.0 0.00 0.00 0.00
20260508235106 62 204 0.0 0.0 0.00 0.00 0.00
20260508234602 62 204 0.0 0.0 0.00 0.00 0.00
20260508234057 64 204 0.0 0.0 0.00 0.00 0.00
20260508233552 65 204 0.0 0.0 0.00 0.00 0.00
20260508233047 65 204 0.0 0.0 0.00 0.00 0.00
20260508232543 65 204 0.0 4.0 0.00 0.00 0.00
20260508232034 65 262 3.0 0.0 0.00 0.00 0.00
20260508231529 65 266 0.0 2.0 0.00 0.00 0.00
20260508231024 66 266 0.0 3.0 0.00 0.00 0.00
20260508230520 66 222 0.0 2.0 0.00 0.00 0.00
20260508230014 66 222 0.0 5.0 0.00 0.00 0.00
20260508225509 66 276 0.0 2.0 0.00 0.00 0.00
20260508225002 66 287 1.0 4.0 0.00 0.00 0.00
20260508224457 66 354 1.0 5.0 0.00 0.00 0.00
20260508223952 66 293 0.0 9.0 0.00 0.00 0.00
20260508223447 68 274 2.0 6.0 0.00 0.00 0.00
20260508222943 68 281 5.0 4.0 0.00 0.00 0.00
20260508222438 67 269 2.0 7.0 0.00 0.00 0.00
20260508221930 68 259 1.0 6.0 0.00 0.00 0.00
20260508221426 68 357 1.0 6.0 0.00 0.00 0.00
20260508220921 69 280 2.0 7.0 0.00 0.00 0.00
20260508220416 68 291 0.0 6.0 0.00 0.00 0.00
20260508215911 67 101 1.0 6.0 0.00 0.00 0.00
20260508214859 67 280 2.0 8.0 0.00 0.00 0.00
20260508214354 68 318 5.0 6.0 0.00 0.00 0.00
20260508213848 67 316 1.0 11.0 0.00 0.00 0.00
20260508213343 68 278 5.0 11.0 0.00 0.00 0.00
20260508212839 70 280 6.0 15.0 0.00 0.00 0.00
20260508212334 68 269 7.0 13.0 0.00 0.00 0.00
20260508211826 70 224 9.0 12.0 0.00 0.00 0.00
20260508211322 70 250 6.0 11.0 0.00 0.00 0.00
20260508210817 71 273 8.0 11.0 0.00 0.00 0.00
20260508210312 69 240 4.0 9.0 0.00 0.00 0.00
20260508205807 69 250 5.0 10.0 0.00 0.00 0.00
20260508205306 70 260 7.0 8.0 0.00 0.00 0.00
20260508204755 70 253 8.0 8.0 0.00 0.00 0.00
20260508204250 69 253 6.0 9.0 0.00 0.00 0.00
20260508203745 69 293 8.0 11.0 0.00 0.00 0.00
20260508203241 69 249 10.0 16.0 0.00 0.00 0.00
20260508202736 69 257 10.0 23.0 0.00 0.00 0.00
20260508202231 70 225 9.0 19.0 0.00 0.00 0.00
20260508201724 71 236 18.0 27.0 0.00 0.00 0.00
20260508200714 73 271 11.0 16.0 0.00 0.00 0.00
20260508200210 73 238 9.0 14.0 0.00 0.00 0.00
20260508195705 73 240 9.0 17.0 0.00 0.00 0.00
20260508195200 72 281 11.0 19.0 0.00 0.00 0.00
20260508194653 72 248 12.0 22.0 0.00 0.00 0.00
20260508194148 73 236 7.0 21.0 0.00 0.00 0.00
20260508193643 72 280 7.0 18.0 0.00 0.00 0.00
20260508193138 70 239 15.0 16.0 0.00 0.00 0.00
20260508192632 70 240 14.0 15.0 0.00 0.00 0.00
20260508192127 70 257 7.0 17.0 0.00 0.00 0.00
20260508191619 68 187 10.0 15.0 0.00 0.00 0.00
20260508191115 68 183 9.0 14.0 0.00 0.00 0.00
20260508190610 67 207 10.0 14.0 0.00 0.00 0.00
20260508190105 67 198 13.0 17.0 0.00 0.00 0.00
20260508185055 72 236 15.0 19.0 0.00 0.00 0.00
20260508184547 68 224 13.0 21.0 0.00 0.00 0.00
20260508184042 67 249 9.0 15.0 0.00 0.00 0.00
20260508183538 71 214 13.0 17.0 0.00 0.00 0.00
20260508183033 69 262 15.0 26.0 0.00 0.00 0.00
20260508182528 69 256 12.0 21.0 0.00 0.00 0.00
20260508182023 70 238 13.0 19.0 0.00 0.00 0.00
20260508181516 68 288 10.0 21.0 0.00 0.00 0.00
20260508181010 72 266 10.0 17.0 0.00 0.00 0.00
20260508180505 72 274 10.0 19.0 0.00 0.00 0.00
20260508180000 69 219 12.0 19.0 0.00 0.00 0.00
20260508174951 68 274 9.0 17.0 0.00 0.00 0.00
20260508174443 69 224 15.0 16.0 0.00 0.00 0.00
20260508173939 70 243 11.0 16.0 0.00 0.00 0.00
20260508173433 67 242 14.0 14.0 0.00 0.00 0.00
20260508172928 69 232 9.0 15.0 0.00 0.00 0.00
20260508172424 69 245 10.0 21.0 0.00 0.00 0.00
20260508171919 70 277 11.0 13.0 0.00 0.00 0.00
20260508171412 67 210 7.0 17.0 0.00 0.00 0.00
20260508170907 69 228 8.0 21.0 0.00 0.00 0.00
20260508170402 67 283 9.0 20.0 0.00 0.00 0.00
20260508165858 67 253 12.0 16.0 0.00 0.00 0.00
20260508165353 66 252 14.0 20.0 0.00 0.00 0.00
20260508164848 69 239 11.0 14.0 0.00 0.00 0.00
20260508164340 67 243 8.0 15.0 0.00 0.00 0.00
20260508163836 67 297 9.0 13.0 0.00 0.00 0.00
20260508163331 67 252 9.0 12.0 0.00 0.00 0.00
20260508162826 67 200 6.0 21.0 0.00 0.00 0.00
20260508161817 65 236 12.0 21.0 0.00 0.00 0.00
20260508161309 68 245 14.0 20.0 0.00 0.00 0.00
20260508160805 68 172 14.0 18.0 0.00 0.00 0.00
20260508160300 66 233 15.0 14.0 0.00 0.00 0.00
20260508155755 67 180 10.0 19.0 0.00 0.00 0.00
20260508154746 65 246 9.0 20.0 0.00 0.00 0.00
20260508154238 65 238 14.0 21.0 0.00 0.00 0.00
20260508153733 66 236 13.0 22.0 0.00 0.00 0.00
20260508153228 66 221 14.0 13.0 0.00 0.00 0.00
20260508152723 65 205 7.0 20.0 0.00 0.00 0.00
20260508152218 65 248 12.0 19.0 0.00 0.00 0.00
20260508151714 64 205 9.0 16.0 0.00 0.00 0.00
20260508151206 64 245 9.0 18.0 0.00 0.00 0.00
20260508150701 63 221 9.0 18.0 0.00 0.00 0.00
20260508150157 64 194 10.0 15.0 0.00 0.00 0.00
20260508145652 64 273 11.0 18.0 0.00 0.00 0.00
20260508145147 62 259 12.0 20.0 0.00 0.00 0.00
20260508144642 64 215 17.0 20.0 0.00 0.00 0.00
20260508144134 64 246 10.0 15.0 0.00 0.00 0.00
20260508143629 63 270 9.0 13.0 0.00 0.00 0.00
20260508143124 63 159 9.0 16.0 0.00 0.00 0.00
20260508142619 63 215 6.0 15.0 0.00 0.00 0.00
20260508142114 61 233 12.0 14.0 0.00 0.00 0.00
20260508141610 62 253 8.0 14.0 0.00 0.00 0.00
20260508141102 62 225 7.0 11.0 0.00 0.00 0.00
20260508140557 62 270 8.0 11.0 0.00 0.00 0.00
20260508140052 61 193 6.0 13.0 0.00 0.00 0.00
20260508135547 61 256 8.0 14.0 0.00 0.00 0.00
20260508135043 60 246 7.0 13.0 0.00 0.00 0.00
20260508134030 59 246 7.0 10.0 0.00 0.00 0.00
20260508133525 60 191 8.0 11.0 0.00 0.00 0.00
20260508133020 58 240 9.0 12.0 0.00 0.00 0.00
20260508132516 58 197 6.0 10.0 0.00 0.00 0.00
20260508132011 58 194 8.0 13.0 0.00 0.00 0.00
20260508131506 58 242 9.0 13.0 0.00 0.00 0.00
20260508130958 58 222 11.0 10.0 0.00 0.00 0.00
20260508130453 56 197 8.0 11.0 0.00 0.00 0.00
20260508125948 56 243 7.0 10.0 0.00 0.00 0.00
20260508125444 56 239 7.0 9.0 0.00 0.00 0.00
20260508124939 56 205 7.0 8.0 0.00 0.00 0.00
20260508124434 55 201 6.0 9.0 0.00 0.00 0.00
20260508123926 55 255 6.0 9.0 0.00 0.00 0.00
20260508123421 54 212 6.0 9.0 0.00 0.00 0.00
20260508122916 53 231 7.0 9.0 0.00 0.00 0.00
20260508122411 53 232 7.0 9.0 0.00 0.00 0.00
20260508121906 54 217 4.0 8.0 0.00 0.00 0.00
20260508121401 53 191 4.0 8.0 0.00 0.00 0.00
20260508120854 54 198 5.0 8.0 0.00 0.00 0.00
20260508120349 53 252 7.0 9.0 0.00 0.00 0.00
20260508115843 52 210 7.0 10.0 0.00 0.00 0.00
20260508115338 51 141 3.0 7.0 0.00 0.00 0.00
20260508114833 49 203 3.0 6.0 0.00 0.00 0.00
20260508114328 47 169 1.0 0.0 0.00 0.00 0.00
20260508113819 44 191 0.0 0.0 0.00 0.00 0.00
20260508113314 44 191 0.0 0.0 0.00 0.00 0.00
20260508112306 42 191 0.0 0.0 0.00 0.00 0.00
20260508111759 41 191 0.0 0.0 0.00 0.00 0.00
20260508111254 41 191 0.0 0.0 0.00 0.00 0.00
20260508110746 40 191 0.0 0.0 0.00 0.00 0.00
20260508110241 39 191 0.0 0.0 0.00 0.00 0.00
20260508105736 38 191 0.0 0.0 0.00 0.00 0.00
20260508105231 37 191 0.0 0.0 0.00 0.00 0.00
20260508104725 38 191 0.0 0.0 0.00 0.00 0.00
20260508103712 37 191 0.0 0.0 0.00 0.00 0.00
20260508103207 37 191 0.0 0.0 0.00 0.00 0.00
20260508102702 37 191 0.0 0.0 0.00 0.00 0.00
20260508102156 38 191 0.0 0.0 0.00 0.00 0.00
20260508101651 36 191 0.0 0.0 0.00 0.00 0.00
20260508100638 36 191 0.0 0.0 0.00 0.00 0.00
20260508100133 38 191 0.0 0.0 0.00 0.00 0.00
20260508095628 38 191 0.0 0.0 0.00 0.00 0.00
20260508095123 37 191 0.0 0.0 0.00 0.00 0.00
20260508094617 38 191 0.0 0.0 0.00 0.00 0.00
20260508094112 38 191 0.0 0.0 0.00 0.00 0.00
20260508093604 38 191 0.0 0.0 0.00 0.00 0.00
20260508093059 39 191 0.0 0.0 0.00 0.00 0.00
20260508092554 38 191 0.0 0.0 0.00 0.00 0.00
20260508091542 38 191 0.0 0.0 0.00 0.00 0.00
20260508091037 39 191 0.0 0.0 0.00 0.00 0.00
20260508090024 39 191 0.0 0.0 0.00 0.00 0.00
20260508085519 40 191 0.0 0.0 0.00 0.00 0.00
20260508085013 41 191 0.0 1.0 0.00 0.00 0.00
20260508084508 41 191 0.0 2.0 0.00 0.00 0.00
20260508084003 43 132 0.0 2.0 0.00 0.00 0.00
20260508083454 42 166 0.0 2.0 0.00 0.00 0.00
20260508082949 42 215 2.0 2.0 0.00 0.00 0.00
20260508082444 43 70 0.0 2.0 0.00 0.00 0.00
20260508081939 42 45 0.0 0.0 0.00 0.00 0.00
20260508081434 43 45 0.0 0.0 0.00 0.00 0.00
20260508080929 42 45 0.0 3.0 0.00 0.00 0.00
20260508080421 43 87 2.0 2.0 0.00 0.00 0.00
20260508075916 43 330 0.0 0.0 0.00 0.00 0.00
20260508075411 43 330 0.0 0.0 0.00 0.00 0.00
20260508074906 45 330 0.0 0.0 0.00 0.00 0.00
20260508074401 44 330 0.0 0.0 0.00 0.00 0.00
20260508073856 45 330 0.0 0.0 0.00 0.00 0.00
20260508072843 45 330 0.0 0.0 0.00 0.00 0.00
20260508072338 46 330 0.0 2.0 0.00 0.00 0.00
20260508071833 46 11 1.0 2.0 0.00 0.00 0.00
20260508071328 47 293 0.0 3.0 0.00 0.00 0.00
20260508070822 48 281 0.0 7.0 0.00 0.00 0.00
20260508070314 49 14 0.0 5.0 0.00 0.00 0.00
20260508065809 48 312 3.0 4.0 0.00 0.00 0.00
20260508065306 49 328 1.0 6.0 0.00 0.00 0.00
20260508064759 49 62 1.0 7.0 0.00 0.00 0.00
20260508064254 50 285 0.0 7.0 0.00 0.00 0.00
20260508063749 49 301 1.0 8.0 0.00 0.00 0.00
20260508063240 50 20 2.0 7.0 0.00 0.00 0.00
20260508062735 49 336 3.0 7.0 0.00 0.00 0.00
20260508062230 51 333 2.0 9.0 0.00 0.00 0.00
20260508061725 51 300 8.0 8.0 0.00 0.00 0.00
20260508061221 51 267 4.0 11.0 0.00 0.00 0.00
20260508060716 52 271 5.0 9.0 0.00 0.00 0.00
20260508060208 50 302 1.0 8.0 0.00 0.00 0.00
20260508055702 52 239 1.0 7.0 0.00 0.00 0.00
20260508055157 52 283 6.0 8.0 0.00 0.00 0.00
20260508054652 51 343 1.0 8.0 0.00 0.00 0.00
20260508054147 51 274 3.0 7.0 0.00 0.00 0.00
20260508053642 52 284 2.0 8.0 0.00 0.00 0.00
20260508053134 52 290 8.0 8.0 0.00 0.00 0.00
20260508052629 52 271 7.0 8.0 0.00 0.00 0.00
20260508051619 54 315 6.0 9.0 0.00 0.00 0.00
20260508051114 54 297 4.0 10.0 0.00 0.00 0.00
20260508050609 53 287 6.0 9.0 0.00 0.00 0.00
20260508045556 54 311 4.0 8.0 0.00 0.00 0.00
20260508045051 54 284 6.0 9.0 0.00 0.00 0.00
20260508044545 53 281 8.0 8.0 0.00 0.00 0.00
20260508044040 54 302 3.0 12.0 0.00 0.00 0.00
20260508043534 54 318 6.0 10.0 0.00 0.00 0.00
20260508043027 54 301 7.0 10.0 0.00 0.00 0.00
20260508042522 54 304 4.0 10.0 0.00 0.00 0.00
20260508042017 54 277 6.0 11.0 0.00 0.00 0.00
20260508041512 54 276 3.0 10.0 0.00 0.00 0.00
20260508041007 55 285 6.0 8.0 0.00 0.00 0.00
20260508040502 55 291 6.0 10.0 0.00 0.00 0.00
20260508034945 56 271 5.0 12.0 0.00 0.00 0.00
20260508034440 54 294 6.0 12.0 0.00 0.00 0.00
20260508033935 55 263 4.0 10.0 0.00 0.00 0.00
20260508033430 54 294 5.0 9.0 0.00 0.00 0.00
20260508032921 53 297 3.0 9.0 0.00 0.00 0.00
20260508032417 52 283 7.0 7.0 0.00 0.00 0.00